Location: Altoona
(40.5167°N, 78.4000°W)
Time: 08:18:00
(UTC-05:00)

Cosmos 2278 Rocket - Pass Details

Date: 21 August 2017
Orbit: 839 x 847 km, 71.0° (Epoch: 23 November)

Event Time Altitude Azimuth Distance (km) Brightness Sun altitude
Rises 23:01:11 0° 340° (NNW) 3,408 6.4 -29.1°
Reaches altitude 10° 23:03:42 10° 345° (NNW) 2,471 5.4 -29.4°
Enters shadow 23:08:26 50° 32° (NNE) 1,074 2.7 -29.9°
